Location: Unspecified
(0.0000°N, 0.0000°E)
Time: 19:53:55
(UTC+00:00)

Envisat - Pass Details

Date: 05 December 2019
Orbit: 764 x 766 km, 98.1° (Epoch: 10 August)

Event Time Altitude Azimuth Distance (km) Brightness Sun altitude
Rises 18:48:33 0° 180° (S) 3,231 6.6 -13.4°
Reaches altitude 10° 18:50:57 10° 186° (S) 2,303 5.9 -13.9°
Maximum altitude 18:55:46 44° 258° (WSW) 1,047 4.2 -15.0°
Drops below altitude 10° 19:00:34 10° 329° (NNW) 2,293 5.6 -16.1°
Sets 19:02:57 0° 336° (NNW) 3,215 6.2 -16.7°
